Showing default

HULIANWANG DIGUI-134, 67242

Orbit data source: Space-Track

HULIANWANG DIGUI-134, 67242 is a payload satellite owned by Zhongguo Xingwang (CN) in LEO that was launched on Thu, 25 Dec 2025 UTC via a CHANG ZHENG 8A launch vehicle from the Wenchang Satellite Launch Center (WSC). Payload-class satellites include a variety of spacecraft equipped with specific instruments for various scientific and technological missions. These include communications satellites like Starlink; space stations such as the ISS; scientific satellites like the Hubble; Earth observation satellites from companies like Planet Labs, Umbra, and HawkEye 360; GPS; miniature CubeSats for education and research; and military/defense satellites.

Loading next visibility...
Identifier
67242, 2025-311G
Orbit
LEO
Country
Flag of CNCN / PRC
Related business
Manufacturer
CAST
Mission
Operational Civil Communications
Bus & Motor
XINGWANG C, Unknown motor
Mass
~700 kg wet, ~700 kg dry
Launch date (UTC)
2025-12-25 (6 months ago)
Launch vehicle
CHANG ZHENG 8A
Launch site
Wenchang Satellite Launch Center (WSC)
Object type
Payload
Rocket body
Debris
Shape & HBR
Box + 2 Pan, 14.5 m
Radar Cross Section
5.935 m², Large (>1 m²)

Expand to show TLE details & history
Last TLE update: 22 hours ago

TLE from 22 hours ago
0 HULIANWANG DIGUI-134
1 67242U 25311G   26163.18317914 -.00000165  00000-0 -89148-4 0  9993
2 67242  50.0029 133.7138 0001037 311.8106  48.2678 13.29321606 22671
Epoch: 2026-06-12T04:23Z
TLE epoch observation values (Epoch: 2026-06-12T04:23:46.677Z)
Latitude
0.00002°
Longitude
167.25304°
Altitude
1,149.31 km
Speed
7.28 km/s
True Right ascension
08h 54m 51s
True Declination
0° 00' 00"
Sunlit
Object was in daylight at epoch
Visualization orbit readout
Latitude
Unknown
Longitude
Unknown
Altitude
Unknown
Speed
Unknown
Apparent Right ascension
Unknown
Apparent Declination
Unknown
Sunlit
N/A
Visualization observer readout
Local Sidereal Time
12:47:59
Azimuth
Unknown
Elevation
Unknown
Doppler factor
Unknown
Orbital elements
Apogee altitude
1,150.809 km
Perigee altitude
1,149.247 km
Semi-major axis
7,528.165 km
Eccentricity
0.0001
Inclination
50.0029°
RAAN
133.7138°
Arg. of periapsis
311.8106°
True anomaly
48.27667°
Mean anomaly
48.2678°
Eccentric anomaly
48.27223°
Mean motion
3.32284 °/min
Orbital period
108.34 mins
BSTAR
-0.000089148
Loading maneuver chart data...
Computing Atmospheric mass density...
Loading historical data...
Loading historical data...
Loading historical data...
Loading historical data...
Loading historical data...
Loading historical data...
Loading historical data...

Documentation

Showing up to 5 results
|